Temperature
22 22 21 21 23 25 27 29 30 29 29 29 28 28 27 26 25 23 22 21 20 20 20 20 20 19 19 19 19 19 19 19 19 19 19 19 19 19 18 18 18 18 18 18 18 18 18 18 18
22 21 22 23 25 27 28 29 29 29 29 29 28 28 27 25 24 22 21 21 20 20 20 20 20 20 19 19 19 19 19 19 19 19 19 19 19 19 18 18 18 18 18 18 18 18 18 18 18
22 22 23 26 27 28 29 30 30 30 29 29 28 27 26 25 23 22 21 21 21 20 20 20 20 20 20 20 20 20 19 19 19 19 19 19 19 19 19 18 18 18 18 18 18 18 18 18 18
22 24 25 27 29 30 30 30 31 30 30 29 28 26 25 24 23 22 22 21 21 20 20 20 20 20 20 20 20 20 19 19 19 19 19 19 19 19 18 18 18 18 18 18 18 18 18 18 18
23 26 27 29 30 31 31 31 31 30 30 29 27 26 24 23 23 22 22 22 21 20 20 20 20 20 20 20 20 20 19 19 19 19 19 19 19 19 19 18 18 18 18 18 18 18 18 18 18
25 27 28 29 30 31 32 31 31 30 30 28 27 25 24 23 23 22 22 22 21 20 20 20 20 20 20 20 20 19 19 19 19 19 19 19 19 19 19 18 18 18 18 18 18 18 18 18 19
26 27 29 30 30 31 32 31 31 30 30 29 28 26 24 23 23 23 22 22 21 21 20 20 20 20 20 20 20 19 19 19 19 19 19 19 19 19 19 18 18 18 18 18 18 18 18 18 19
28 29 30 31 30 30 32 31 31 30 29 29 28 27 24 23 23 23 22 22 22 21 21 20 20 20 20 20 20 19 19 19 19 19 19 19 19 19 18 18 19 18 18 18 18 18 18 19 19
30 30 30 31 31 31 32 31 30 30 29 28 28 26 25 24 23 23 23 22 22 22 21 21 20 20 20 19 19 19 19 19 19 19 19 19 18 18 18 18 19 19 19 19 19 18 18 19 19
31 30 31 32 33 32 32 31 31 30 29 28 27 25 24 24 24 23 23 23 22 22 21 21 21 20 20 20 20 19 19 19 19 19 19 19 18 18 18 19 19 19 19 18 18 18 18 18 18
32 31 32 33 33 33 32 31 31 30 29 28 27 26 25 24 24 24 24 23 23 22 22 21 21 21 20 20 20 19 19 19 19 19 19 19 19 19 19 19 19 19 18 18 18 18 18 18 18
33 33 33 34 33 33 33 32 31 30 29 28 27 26 25 25 25 25 24 23 23 22 22 21 21 21 20 20 20 20 20 19 19 19 19 19 19 19 19 19 19 18 18 18 18 18 18 18 18
33 34 34 33 33 33 32 32 31 30 29 28 27 27 26 26 25 25 24 24 23 23 22 21 21 21 20 20 20 20 20 19 19 19 19 19 19 19 19 19 19 19 19 19 18 18 18 18 18
34 34 34 33 33 33 33 32 31 30 29 28 28 27 27 26 26 25 24 24 23 22 22 21 21 20 20 20 20 20 20 20 19 19 19 19 19 19 19 19 19 19 19 19 19 19 18 18 18
34 34 34 34 34 33 32 31 31 30 29 29 28 28 27 27 26 25 25 24 23 22 22 21 21 20 20 20 20 20 20 20 19 19 19 19 19 19 19 19 19 19 19 19 19 18 18 18 18
33 32 32 34 34 34 32 30 31 30 30 29 29 28 27 27 26 25 25 24 23 22 22 21 21 20 20 20 20 20 20 20 19 19 19 19 19 19 19 19 19 19 19 19 19 19 18 18 18
32 32 32 33 34 34 33 31 31 31 30 29 29 28 28 27 26 25 25 24 23 22 21 21 21 20 20 20 20 20 20 20 19 19 19 19 19 19 19 19 19 19 19 19 19 19 18 18 18
31 32 33 33 34 34 33 32 32 31 31 30 29 29 28 27 27 26 25 24 23 22 21 21 20 20 20 20 20 20 20 19 19 19 19 19 19 19 19 19 19 19 18 19 19 19 19 19 19
33 33 33 33 34 34 33 32 32 32 31 30 29 29 28 28 27 26 25 24 23 22 21 21 21 20 20 20 20 20 19 19 19 19 19 19 19 19 19 19 19 19 18 18 18 18 18 19 19
33 33 33 33 34 34 33 33 33 32 32 31 30 29 29 28 27 26 25 24 23 22 21 21 21 20 20 20 20 20 20 19 19 19 19 19 19 19 19 19 19 19 18 18 18 18 18 18 18
33 33 33 33 34 34 33 32 32 32 32 31 31 30 30 29 27 26 25 25 24 23 22 21 21 21 20 20 20 20 20 19 19 19 19 19 19 19 19 19 18 18 18 18 18 18 18 18 18
33 34 34 33 33 32 33 30 30 31 31 31 31 30 30 29 28 27 26 25 24 23 22 22 21 21 21 20 20 20 20 20 19 19 19 19 19 19 19 19 19 18 18 18 18 18 18 18 18
33 34 34 33 33 32 33 32 31 31 30 31 31 31 30 29 28 27 26 25 25 24 23 22 21 21 21 20 20 20 20 20 19 19 19 19 19 19 19 19 19 18 18 18 18 18 18 18 18
34 34 33 33 32 30 31 32 31 31 31 31 31 30 30 29 28 27 27 26 25 24 23 22 21 21 21 21 20 20 20 20 19 19 19 19 19 19 19 18 18 18 18 18 18 18 18 18 18
34 32 30 29 29 30 31 31 31 32 33 32 32 31 30 30 29 28 27 26 25 24 23 23 22 21 21 21 20 20 20 20 20 19 19 19 19 19 19 18 18 18 18 18 18 18 18 18 18
33 32 30 29 29 30 30 30 31 33 33 33 32 32 31 30 29 28 27 26 25 24 24 23 22 21 21 21 21 20 20 20 20 19 19 19 19 19 19 18 18 18 18 18 18 18 18 18 18
32 32 33 31 30 30 30 31 31 32 32 32 32 32 31 30 29 28 27 26 25 24 24 23 22 22 21 21 21 20 20 20 20 19 19 19 19 19 18 18 18 18 18 18 18 18 18 18 18
33 33 32 31 29 29 30 31 30 30 29 30 31 31 31 30 29 28 27 26 25 24 23 23 22 22 21 21 21 20 20 20 20 19 19 19 19 19 18 18 18 18 18 18 18 17 17 17 17
32 32 32 32 31 30 29 30 31 30 29 30 30 30 30 30 29 28 27 26 25 25 24 23 22 22 21 21 20 20 20 20 19 19 19 19 19 18 18 18 18 18 18 18 18 17 17 17 17
33 32 32 30 29 30 29 30 32 31 31 31 30 30 29 29 28 28 27 26 25 25 24 23 22 22 21 21 20 20 20 20 19 19 19 19 19 18 18 18 18 18 18 18 18 17 17 17 17
Wind_Speed
9 10 8 5 4 2 7 11 12 11 11 11 11 11 15 15 11 10 9 13 15 15 14 14 14 13 13 13 12 11 11 11 11 11 11 11 11 10 10 11 11 11 11 11 10 10 11 11 10
8 8 6 4 2 4 10 11 12 11 10 9 11 14 15 14 13 11 10 12 15 15 14 15 14 13 13 12 12 11 11 10 10 10 10 10 10 9 10 10 11 11 10 10 10 10 10 10 10
10 9 5 3 2 9 11 11 10 9 9 9 12 14 11 10 11 10 11 13 15 15 15 15 14 13 13 12 12 11 10 10 9 10 10 10 10 10 10 11 11 10 10 10 10 10 10 9 8
6 6 4 1 8 12 10 9 8 9 9 10 11 11 11 10 11 13 14 14 15 15 16 15 14 13 13 12 11 11 10 9 9 9 10 10 10 10 10 11 10 9 9 9 9 9 9 8 7
6 4 2 3 10 10 9 8 9 10 10 13 15 14 13 13 15 15 13 13 14 14 15 15 14 13 13 11 10 10 9 9 8 9 9 10 10 10 10 10 9 8 9 9 9 8 8 7 6
4 2 2 7 11 10 9 10 10 11 11 12 15 14 11 13 14 13 13 12 14 14 14 15 14 13 12 11 10 9 8 8 8 9 9 9 9 9 9 9 8 7 8 8 8 8 7 6 4
4 3 3 7 10 10 9 10 10 10 9 9 12 13 11 13 12 12 12 12 13 14 13 12 13 12 11 10 9 9 8 8 8 8 9 9 9 8 8 9 8 7 7 7 7 7 6 5 5
4 3 4 8 9 9 10 11 10 10 9 8 9 10 13 14 13 13 12 12 11 12 11 11 12 11 11 10 10 10 9 9 9 8 8 8 8 8 9 9 8 7 7 7 7 7 6 5 5
3 2 5 8 7 8 9 10 9 9 10 9 11 16 17 16 14 13 12 10 10 10 9 9 9 9 10 11 11 10 9 9 9 8 8 8 7 7 8 9 10 8 7 7 7 7 6 5 5
1 3 6 6 7 8 8 8 8 9 10 12 15 17 17 15 14 13 12 10 10 9 9 8 8 7 7 7 9 8 8 8 7 6 6 6 5 6 7 10 10 9 8 7 8 8 7 6 5
3 4 5 6 7 7 7 7 8 8 8 12 15 16 16 15 13 12 12 11 10 9 8 8 8 6 5 5 6 5 5 7 6 6 6 5 4 5 6 6 8 8 8 6 7 7 6 4 3
3 4 4 6 6 5 6 8 9 9 9 13 16 16 15 14 12 12 12 11 11 9 8 8 8 6 4 4 3 4 3 4 5 5 5 4 3 2 3 3 4 4 4 4 4 3 3 3 3
2 2 3 4 5 5 5 7 9 10 12 14 16 15 15 13 12 11 11 11 10 10 9 8 8 6 5 3 1 3 4 4 5 5 4 3 3 2 3 3 3 3 4 4 3 2 3 3 2
1 1 1 2 3 4 4 6 8 10 12 14 14 14 13 12 13 12 11 10 10 9 9 9 8 7 5 3 1 2 3 5 5 5 5 3 3 3 2 2 1 1 2 3 3 2 3 2 2
4 2 2 3 3 4 5 3 7 11 11 13 13 12 12 12 12 12 11 11 11 9 8 8 9 8 5 3 2 2 3 5 5 5 5 4 4 3 2 2 2 1 2 3 3 3 3 3 2
6 6 5 3 3 4 3 3 8 12 12 11 12 12 12 12 12 12 12 11 10 10 9 6 7 8 6 3 1 2 3 5 4 5 5 5 4 3 1 2 2 2 2 2 2 3 2 2 2
7 6 5 3 2 2 3 4 8 12 13 11 12 13 13 12 13 12 13 12 11 10 9 7 6 7 6 5 2 2 3 3 4 4 4 4 4 3 2 2 2 2 1 1 1 2 2 2 2
6 6 4 1 2 2 3 4 9 11 13 13 12 13 14 13 13 13 13 13 12 11 9 8 7 7 6 5 3 2 2 2 3 4 4 4 3 3 2 3 2 1 2 2 2 2 1 1 1
9 9 6 3 2 4 3 4 8 10 11 12 12 12 15 14 15 14 14 14 14 12 10 9 8 7 6 4 4 3 3 2 2 3 4 4 3 3 1 1 2 1 2 3 2 1 0 1 0
11 10 7 5 3 5 5 5 6 10 12 12 13 14 15 16 15 15 14 14 14 13 12 10 9 8 7 5 4 4 3 3 3 3 4 3 3 3 2 2 2 2 2 2 1 1 0 1 1
12 10 8 8 6 7 8 6 4 8 9 11 12 13 13 15 17 17 15 14 14 14 13 11 10 9 8 7 5 4 3 2 2 4 3 3 2 2 2 3 2 2 2 2 1 1 1 0 1
11 9 9 10 10 8 7 6 5 7 8 9 10 11 12 14 16 16 16 16 15 15 14 11 11 10 8 7 6 7 5 4 4 3 3 3 3 2 3 3 2 1 2 2 1 2 0 1 1
10 10 11 12 12 12 12 8 5 8 9 10 11 11 11 12 14 16 15 14 14 14 14 12 11 10 9 8 7 6 5 4 4 3 5 4 3 3 3 3 2 2 2 2 1 1 0 1 1
10 11 12 11 10 11 12 10 4 5 8 8 8 10 9 11 12 13 13 12 12 14 14 13 12 10 9 9 8 7 6 5 4 4 4 3 3 3 4 4 3 2 2 2 2 1 1 1 1
11 11 8 7 7 9 8 8 3 5 6 8 9 11 11 11 13 13 13 13 13 14 14 14 14 12 11 10 8 7 6 6 6 5 5 5 4 4 4 4 3 2 2 2 2 2 1 1 1
10 10 8 9 8 7 5 6 2 3 5 6 7 8 9 9 11 13 13 12 11 13 13 14 14 13 12 11 8 7 6 6 5 5 4 5 4 4 5 5 4 4 3 3 3 3 3 2 2
11 10 11 11 12 11 7 4 3 2 2 4 6 8 8 8 10 12 13 12 10 9 11 12 13 13 12 12 10 8 7 6 6 6 6 4 3 4 6 6 5 4 3 2 3 2 2 2 3
13 11 9 9 7 9 9 6 2 2 2 2 2 6 8 9 9 10 11 12 12 11 10 10 11 11 11 11 10 10 8 7 6 5 6 5 5 4 5 6 6 5 4 3 3 3 3 3 2
11 12 11 9 8 9 8 5 2 5 4 4 5 5 6 7 7 7 8 10 11 11 12 13 12 11 11 11 9 9 9 8 7 6 5 6 5 5 5 6 6 5 5 4 4 4 3 4 3
11 12 11 10 8 9 9 7 2 4 4 4 3 4 6 5 5 7 7 8 9 10 10 10 11 11 11 9 8 8 8 8 9 8 6 5 6 6 5 5 5 5 5 5 4 5 4 4 4
Wind_Direction
197 212 219 241 247 228 60 59 62 59 61 55 54 63 62 52 64 90 108 111 111 112 115 114 109 105 103 103 102 100 99 95 95 94 96 101 105 105 107 108 107 111 113 114 114 114 119 118 116
221 226 234 244 252 63 63 61 61 62 71 78 70 69 72 68 81 100 109 112 112 114 117 115 114 110 107 105 103 100 98 96 96 97 98 103 106 108 113 113 109 111 112 113 114 115 120 121 121
246 242 254 243 46 61 63 66 73 76 80 82 75 64 63 78 89 106 120 118 113 114 114 118 119 114 110 107 106 104 101 99 98 98 96 101 106 107 114 115 111 116 115 115 115 118 122 124 127
243 237 239 265 58 65 68 75 86 87 83 81 83 79 72 81 100 116 126 123 119 118 117 121 122 119 116 113 111 109 106 105 102 101 101 102 106 107 110 113 114 118 122 121 122 126 128 130 132
247 263 258 74 71 67 67 77 82 81 79 80 84 89 86 93 109 120 125 123 119 117 119 125 126 125 123 119 116 114 112 111 109 108 108 111 111 111 113 115 117 119 125 127 130 131 130 130 132
275 282 358 65 75 71 66 67 81 86 90 96 101 101 100 111 117 124 126 123 120 122 123 127 132 131 131 130 126 123 122 122 121 121 119 120 122 119 119 121 121 122 126 129 133 136 138 140 148
251 297 41 64 72 68 68 69 72 84 86 93 109 110 117 120 121 124 121 119 121 124 128 135 138 139 139 139 137 135 132 132 135 136 133 132 132 130 130 130 130 131 134 138 138 142 148 157 166
246 293 28 64 74 72 73 73 73 76 82 96 116 115 128 130 132 126 122 123 123 127 131 136 141 142 145 146 145 144 145 143 144 145 148 147 145 149 148 147 149 148 146 148 151 153 160 169 173
276 325 38 57 74 80 79 78 83 87 84 76 81 110 127 135 134 130 127 130 128 126 129 133 134 144 148 150 145 154 157 157 156 160 166 166 161 159 160 150 156 160 161 163 163 165 168 168 181
164 30 44 57 76 91 88 91 95 97 97 97 99 112 128 138 141 138 138 139 133 132 132 130 136 140 143 140 141 160 157 155 161 153 159 172 161 157 149 153 164 170 176 177 179 182 179 187 184
88 73 58 72 77 88 95 103 96 94 106 119 127 132 140 145 147 142 142 138 136 137 134 129 128 126 125 120 138 145 141 141 142 144 154 151 152 156 150 159 168 180 185 186 171 181 189 183 163
65 68 53 73 83 83 87 92 92 93 103 122 134 142 146 152 151 148 145 142 138 136 129 121 111 105 95 96 119 135 131 127 132 149 148 144 157 150 140 146 152 168 162 154 144 172 152 126 116
56 73 71 77 84 90 95 97 99 104 115 125 136 146 151 152 150 145 138 138 138 135 128 116 110 99 89 71 52 119 114 115 125 131 127 132 126 126 121 128 157 160 152 144 136 146 130 126 135
351 46 86 114 123 129 112 116 117 123 131 136 144 150 153 150 149 145 142 138 133 129 126 126 127 118 115 119 91 84 115 127 121 120 124 129 108 107 112 130 121 118 135 129 148 151 138 133 154
262 257 223 190 173 138 123 128 131 139 145 149 152 155 153 154 151 149 148 145 140 137 132 132 137 130 134 140 151 125 130 123 117 119 121 120 115 117 132 142 137 131 158 149 150 146 145 155 162
273 250 236 203 199 154 171 169 157 156 157 160 159 159 159 159 158 154 151 145 143 140 134 149 145 137 135 131 126 103 106 108 118 122 115 110 114 125 132 125 123 162 177 159 154 160 153 151 170
256 250 242 204 223 178 189 163 166 168 162 169 170 167 165 166 166 158 157 152 147 142 143 150 136 141 146 144 126 96 95 104 115 117 116 124 131 133 125 119 117 202 169 134 135 116 132 148 177
284 286 280 267 180 245 236 174 176 179 176 175 179 176 171 175 172 164 163 157 152 148 150 152 149 146 148 148 141 118 107 123 119 114 123 133 140 128 117 146 143 168 104 71 57 75 106 161 207
281 289 296 305 267 272 264 210 188 187 185 176 181 187 179 178 173 166 168 164 159 156 157 159 163 156 159 162 159 156 156 153 136 137 136 145 144 134 128 117 132 97 91 78 67 62 116 203 160
277 284 294 296 283 289 283 263 212 195 191 185 190 193 184 177 171 168 173 171 168 163 163 164 167 165 167 165 164 165 160 162 155 132 129 139 139 146 144 127 154 120 114 102 102 110 106 290 99
268 278 288 290 288 275 275 265 237 215 205 190 197 194 185 181 174 174 178 176 173 169 169 172 170 168 174 169 172 168 149 172 147 141 149 150 145 136 97 121 125 130 133 133 161 137 181 266 276
266 282 288 288 287 281 272 267 236 211 203 195 199 197 188 185 177 177 180 180 178 173 172 169 165 167 172 173 181 178 176 178 173 159 148 148 149 145 131 123 119 131 120 139 184 124 269 231 265
274 288 283 285 286 284 275 268 231 189 195 190 191 192 191 180 175 176 180 179 176 170 170 166 161 166 170 176 181 182 182 174 158 155 147 159 168 169 150 132 132 139 138 134 116 108 26 293 312
272 276 277 280 277 271 275 278 235 195 191 191 178 176 189 175 169 171 173 169 174 170 168 164 161 166 169 176 182 182 179 163 157 160 159 174 172 173 168 157 151 153 145 136 145 165 181 264 353
253 260 275 276 260 263 276 275 223 185 166 165 177 173 178 174 167 165 167 170 173 171 170 166 165 170 173 178 182 181 182 173 174 182 178 183 186 178 169 169 160 164 149 153 159 183 195 199 232
255 259 258 271 277 281 272 266 263 136 134 149 160 154 159 166 169 164 167 167 170 172 171 169 168 172 176 180 181 180 183 188 187 189 194 193 194 174 160 165 168 169 172 182 175 193 182 190 230
257 258 269 273 277 283 270 224 198 182 146 155 153 150 153 158 162 164 167 164 161 172 171 169 167 172 178 181 178 180 184 193 190 186 195 197 185 172 163 170 175 171 172 175 175 200 196 189 219
247 263 273 269 282 284 280 268 217 158 156 204 194 162 152 152 154 155 160 165 166 171 173 165 167 171 177 178 181 184 186 193 191 189 188 191 189 178 167 170 172 171 172 181 196 206 202 208 225
236 247 258 275 280 285 284 291 170 160 177 183 204 161 136 148 151 154 161 165 166 166 170 169 171 173 178 181 180 182 183 191 190 192 193 189 187 178 176 175 175 178 180 190 205 222 203 212 228
243 250 252 259 267 279 285 284 171 153 167 165 143 123 133 139 152 153 158 162 163 169 167 168 170 176 178 175 176 183 184 186 189 193 196 191 184 182 182 184 183 190 190 196 204 223 222 216 220
Height
1490 1490 1491 1494 1493 1491 1485 1476 1472 1473 1475 1477 1478 1479 1484 1487 1493 1506 1507 1507 1508 1508 1509 1510 1511 1511 1512 1514 1515 1517 1518 1520 1521 1521 1522 1523 1524 1526 1527 1528 1530 1531 1533 1534 1536 1537 1538 1540 1542
1490 1492 1494 1493 1492 1493 1486 1476 1476 1476 1478 1480 1481 1483 1487 1493 1498 1504 1507 1509 1510 1510 1511 1512 1513 1514 1515 1516 1517 1519 1520 1521 1522 1523 1524 1525 1526 1527 1528 1530 1531 1533 1534 1536 1537 1538 1540 1541 1543
1490 1493 1494 1488 1484 1486 1485 1476 1476 1477 1479 1480 1484 1488 1492 1498 1502 1505 1509 1510 1511 1512 1513 1514 1515 1516 1517 1518 1519 1520 1522 1523 1524 1524 1525 1526 1527 1528 1529 1531 1533 1534 1536 1537 1539 1540 1541 1543 1544
1491 1493 1490 1485 1482 1476 1475 1475 1475 1477 1479 1482 1485 1492 1499 1502 1505 1508 1510 1512 1513 1514 1515 1516 1517 1518 1519 1520 1521 1522 1523 1524 1525 1526 1527 1527 1529 1529 1531 1532 1534 1536 1537 1538 1540 1541 1543 1544 1546
1493 1490 1487 1483 1479 1475 1472 1473 1475 1478 1480 1484 1489 1496 1502 1506 1507 1510 1512 1514 1515 1516 1517 1518 1519 1520 1521 1522 1522 1523 1525 1526 1526 1527 1528 1529 1530 1531 1532 1534 1535 1537 1538 1539 1541 1543 1544 1545 1547
1491 1487 1488 1487 1480 1475 1473 1475 1476 1480 1483 1487 1492 1498 1505 1509 1510 1512 1514 1516 1517 1518 1519 1520 1521 1521 1522 1523 1524 1525 1525 1526 1527 1528 1529 1530 1531 1532 1534 1535 1536 1538 1539 1541 1542 1543 1545 1546 1548
1490 1487 1487 1483 1481 1479 1476 1477 1479 1481 1484 1487 1492 1498 1506 1510 1512 1514 1516 1518 1519 1520 1521 1521 1522 1523 1524 1524 1525 1526 1526 1527 1528 1529 1530 1532 1533 1534 1535 1536 1538 1539 1540 1542 1543 1544 1546 1547 1548
1486 1485 1483 1481 1484 1483 1478 1479 1481 1484 1486 1489 1491 1497 1505 1510 1513 1515 1517 1519 1521 1522 1523 1523 1524 1525 1525 1525 1526 1526 1527 1528 1529 1530 1531 1533 1534 1535 1537 1538 1539 1540 1541 1543 1544 1545 1547 1548 1549
1483 1486 1486 1482 1482 1482 1479 1481 1483 1486 1488 1491 1492 1498 1505 1510 1514 1516 1519 1521 1522 1524 1525 1525 1526 1526 1526 1526 1526 1527 1527 1528 1529 1531 1532 1533 1535 1536 1538 1539 1541 1542 1543 1544 1545 1547 1548 1549 1551
1481 1487 1483 1476 1476 1478 1481 1482 1484 1486 1489 1493 1498 1503 1507 1511 1514 1517 1519 1521 1523 1525 1526 1526 1527 1527 1527 1528 1527 1528 1529 1530 1531 1532 1533 1535 1536 1538 1539 1541 1542 1543 1544 1545 1546 1548 1549 1550 1551
1479 1482 1477 1476 1477 1478 1480 1482 1484 1486 1490 1495 1500 1504 1508 1512 1514 1517 1519 1522 1524 1525 1526 1527 1528 1528 1528 1529 1529 1530 1531 1531 1532 1533 1534 1536 1537 1539 1540 1541 1543 1544 1545 1546 1547 1548 1549 1551 1552
1478 1477 1476 1476 1478 1479 1480 1482 1485 1488 1492 1496 1500 1504 1508 1511 1514 1517 1519 1522 1524 1525 1527 1528 1528 1528 1529 1529 1530 1531 1532 1533 1533 1534 1535 1537 1538 1540 1541 1542 1543 1544 1546 1547 1548 1549 1550 1551 1552
1478 1477 1477 1477 1479 1480 1481 1483 1486 1490 1494 1497 1501 1505 1508 1511 1514 1517 1519 1522 1524 1526 1527 1528 1529 1529 1530 1530 1531 1533 1533 1534 1535 1536 1537 1538 1539 1541 1542 1543 1544 1545 1547 1547 1548 1550 1550 1551 1552
1478 1477 1477 1477 1478 1479 1481 1483 1487 1492 1494 1498 1501 1505 1507 1510 1513 1517 1519 1522 1524 1526 1528 1529 1530 1530 1531 1532 1533 1534 1535 1535 1536 1537 1538 1539 1540 1541 1542 1543 1545 1546 1547 1548 1548 1550 1551 1552 1552
1477 1477 1477 1475 1475 1477 1481 1486 1487 1491 1494 1497 1501 1504 1507 1510 1513 1516 1519 1521 1524 1526 1527 1529 1530 1530 1531 1533 1534 1535 1536 1537 1537 1538 1539 1540 1541 1542 1543 1544 1545 1546 1547 1548 1549 1550 1551 1552 1553
1477 1481 1484 1475 1472 1474 1482 1492 1485 1489 1492 1496 1499 1503 1506 1509 1512 1515 1518 1521 1523 1525 1527 1529 1530 1531 1532 1533 1534 1536 1537 1537 1538 1539 1539 1540 1541 1542 1543 1544 1545 1546 1548 1548 1549 1550 1551 1552 1552
1481 1486 1484 1477 1471 1471 1477 1486 1483 1486 1489 1494 1497 1501 1504 1508 1511 1514 1517 1520 1522 1524 1526 1528 1530 1531 1532 1533 1535 1536 1537 1538 1539 1539 1540 1541 1542 1543 1544 1545 1545 1546 1548 1548 1549 1550 1550 1551 1552
1489 1484 1481 1478 1471 1471 1475 1479 1480 1483 1486 1490 1494 1498 1502 1506 1509 1512 1516 1518 1521 1523 1525 1527 1529 1530 1532 1533 1535 1536 1537 1538 1539 1540 1540 1541 1542 1543 1543 1544 1545 1546 1547 1548 1549 1549 1550 1551 1552
1478 1480 1481 1475 1468 1470 1474 1476 1477 1479 1482 1486 1491 1494 1498 1502 1506 1510 1513 1517 1519 1521 1523 1525 1528 1529 1531 1533 1534 1536 1537 1538 1539 1540 1541 1541 1542 1543 1543 1544 1545 1546 1546 1547 1548 1549 1549 1551 1552
1478 1481 1480 1473 1467 1470 1473 1474 1472 1475 1478 1482 1486 1490 1493 1498 1503 1507 1511 1514 1517 1519 1521 1523 1526 1528 1530 1531 1533 1535 1537 1538 1539 1540 1540 1541 1542 1542 1543 1543 1544 1545 1546 1547 1547 1548 1549 1550 1551
1479 1478 1478 1476 1470 1468 1473 1479 1474 1472 1474 1478 1482 1485 1489 1493 1498 1503 1507 1511 1514 1516 1518 1521 1524 1526 1528 1530 1532 1535 1536 1537 1539 1539 1540 1541 1542 1542 1543 1543 1544 1545 1545 1546 1547 1547 1548 1549 1550
1480 1470 1471 1472 1476 1479 1475 1492 1481 1472 1473 1475 1478 1482 1485 1489 1494 1499 1503 1507 1511 1514 1517 1519 1521 1524 1526 1529 1531 1533 1534 1536 1537 1539 1539 1540 1541 1541 1542 1542 1543 1544 1544 1545 1546 1546 1547 1549 1549
1473 1468 1469 1471 1475 1480 1473 1482 1481 1471 1475 1473 1474 1478 1482 1485 1490 1494 1499 1504 1507 1511 1514 1516 1519 1521 1524 1527 1529 1531 1533 1535 1537 1538 1539 1539 1540 1541 1541 1541 1542 1543 1543 1544 1544 1545 1546 1547 1548
1467 1470 1471 1472 1478 1495 1480 1481 1484 1472 1471 1470 1471 1475 1479 1482 1486 1491 1496 1501 1504 1508 1511 1513 1516 1519 1522 1524 1527 1529 1531 1533 1535 1536 1537 1538 1539 1539 1540 1541 1541 1542 1543 1543 1544 1544 1545 1546 1547
1468 1479 1495 1500 1502 1497 1475 1479 1477 1462 1460 1463 1467 1471 1475 1479 1483 1488 1494 1498 1501 1505 1508 1511 1513 1516 1519 1522 1524 1527 1529 1531 1532 1534 1535 1536 1537 1538 1539 1540 1540 1541 1542 1542 1543 1544 1544 1545 1546
1469 1475 1497 1510 1505 1491 1480 1484 1470 1457 1459 1462 1464 1468 1472 1477 1480 1485 1491 1495 1499 1503 1506 1508 1510 1513 1516 1519 1522 1524 1527 1529 1530 1532 1533 1535 1536 1537 1537 1538 1539 1540 1541 1542 1542 1543 1543 1544 1545
1471 1472 1467 1480 1486 1492 1484 1473 1467 1460 1461 1462 1463 1467 1471 1475 1479 1484 1489 1493 1496 1499 1503 1506 1508 1511 1514 1516 1519 1522 1524 1526 1528 1530 1531 1533 1534 1535 1535 1536 1537 1538 1539 1540 1541 1541 1542 1543 1544
1463 1465 1470 1481 1498 1502 1489 1479 1478 1470 1468 1466 1466 1467 1470 1474 1479 1483 1487 1491 1494 1497 1501 1503 1506 1509 1511 1514 1516 1519 1521 1523 1526 1528 1529 1531 1532 1533 1534 1535 1536 1537 1537 1538 1539 1540 1541 1542 1542
1465 1468 1470 1473 1478 1495 1502 1488 1463 1465 1466 1466 1467 1467 1470 1473 1477 1481 1485 1489 1492 1496 1498 1501 1504 1506 1509 1512 1513 1516 1518 1520 1523 1525 1526 1528 1529 1530 1532 1533 1534 1535 1535 1536 1537 1538 1539 1540 1540
1457 1462 1467 1482 1486 1482 1489 1485 1455 1459 1462 1463 1465 1468 1471 1473 1476 1480 1484 1487 1491 1494 1497 1500 1502 1505 1507 1508 1511 1513 1516 1518 1520 1522 1523 1525 1527 1528 1529 1531 1532 1532 1533 1534 1535 1536 1537 1538 1538